Storm Lake, IA

6:37 PM CDT on August 19, 2017 (GMT -0500)
Storm Lake Municipal

Weather History for KSLB - October, 2012

Change the Weather History Date:

Sunday, October 14, 2012

  Actual Average Record
Temperature  
Mean Temperature 53 °F -  
Max Temperature 62 °F 63 °F 82 °F (1996)
Min Temperature 42 °F 40 °F 23 °F (2006)
Degree Days  
Heating Degree Days 12    
Growing Degree Days 3 (Base 50)    
Moisture  
Dew Point 41 °F    
Average Humidity 67    
Maximum Humidity 94    
Minimum Humidity 34    
Precipitation  
Precipitation 0.00 in - - ()
Sea Level Pressure  
Sea Level Pressure 29.81 in    
Wind  
Wind Speed 17 mph (NNW)    
Max Wind Speed 28 mph    
Max Gust Speed 37 mph    
Visibility 8 miles    
Events Rain    
Averages and records for this station are not official NWS values.
T = Trace of Precipitation, MM = Missing Value Source: NWS Daily Summary

Daily Weather History Graph

Daily Weather History Graph

Search for Another Location

Airport or City:

Trip Planner

Search our weather history database for the weather conditions in past years. The results will help you decide how hot, cold, wet, or windy it might be!

Date:

Astronomy

Oct. 14, 2012 Rise Set
Actual Time 7:33 AM CDT 6:39 PM CDT
Civil Twilight 7:05 AM CDT 7:07 PM CDT
Nautical Twilight 6:32 AM CDT 7:40 PM CDT
Astronomical Twilight 5:59 AM CDT 8:13 PM CDT
Moon 6:33 AM CDT (10/14) 5:59 PM CDT (10/14)
Length of Visible Light 12h 02m
Length of Day
11h 05m
Waning Crescent, 1% of the Moon is Illuminated
Oct 14
Waning Crescent
Oct 15
New
Oct 21
First Quarter
Oct 29
Full
Nov 6
Last Quarter

Hourly Weather History & Observations

Time (CDT) Temp. Windchill Dew Point Humidity Pressure Visibility Wind Dir Wind Speed Gust Speed Precip Events Conditions
12:15 AM 59.0 °F - 53.6 °F 82% 29.65 in 10.0 mi NE 16.1 mph - N/A   Overcast
12:35 AM 57.2 °F - 53.6 °F 88% 29.65 in 10.0 mi NE 16.1 mph - N/A   Overcast
12:55 AM 57.2 °F - 53.6 °F 88% 29.65 in 10.0 mi NE 15.0 mph - N/A   Mostly Cloudy
1:15 AM 57.2 °F - 53.6 °F 88% 29.65 in 10.0 mi NE 15.0 mph - N/A   Mostly Cloudy
1:35 AM 57.2 °F - 53.6 °F 88% 29.65 in 9.0 mi NNE 16.1 mph - N/A   Overcast
1:55 AM 55.4 °F - 53.6 °F 94% 29.66 in 7.0 mi NNE 18.4 mph - N/A   Overcast
2:15 AM 55.4 °F - 53.6 °F 94% 29.66 in 5.0 mi NNE 15.0 mph - N/A Rain Light Rain
2:35 AM 53.6 °F - 51.8 °F 94% 29.67 in 5.0 mi NNE 15.0 mph 21.9 mph N/A   Overcast
2:55 AM 53.6 °F - 51.8 °F 94% 29.68 in 6.0 mi NNE 16.1 mph - N/A   Overcast
3:15 AM 51.8 °F - 50.0 °F 94% 29.69 in 6.0 mi NNE 11.5 mph 18.4 mph N/A   Overcast
3:35 AM 51.8 °F - 48.2 °F 88% 29.70 in 7.0 mi NNE 20.7 mph - N/A   Overcast
3:55 AM 51.8 °F - 48.2 °F 88% 29.70 in 6.0 mi North 16.1 mph - N/A   Overcast
4:15 AM 51.8 °F - 48.2 °F 88% 29.70 in 6.0 mi North 18.4 mph - N/A   Overcast
4:35 AM 51.8 °F - 48.2 °F 88% 29.69 in 6.0 mi North 18.4 mph - N/A   Mostly Cloudy
4:55 AM 50.0 °F - 48.2 °F 94% 29.69 in 6.0 mi North 17.3 mph 23.0 mph N/A   Partly Cloudy
5:15 AM 50.0 °F - 48.2 °F 94% 29.69 in 6.0 mi North 16.1 mph 21.9 mph N/A   Scattered Clouds
5:35 AM 50.0 °F - 48.2 °F 94% 29.71 in 6.0 mi North 15.0 mph - N/A   Scattered Clouds
5:55 AM 50.0 °F - 48.2 °F 94% 29.71 in 6.0 mi North 16.1 mph 21.9 mph N/A   Partly Cloudy
6:15 AM 48.2 °F - 46.4 °F 93% 29.71 in 6.0 mi North 16.1 mph - N/A   Clear
6:35 AM 48.2 °F - 46.4 °F 93% 29.72 in 6.0 mi NNW 17.3 mph - N/A   Partly Cloudy
6:55 AM 48.2 °F - 46.4 °F 93% 29.73 in 4.0 mi NNW 17.3 mph - N/A   Mostly Cloudy
7:15 AM 48.2 °F - 46.4 °F 93% 29.74 in 4.0 mi NNW 20.7 mph 27.6 mph N/A   Mostly Cloudy
7:35 AM 48.2 °F - 46.4 °F 93% 29.74 in 3.0 mi NNW 18.4 mph 27.6 mph N/A   Overcast
7:55 AM 48.2 °F - 46.4 °F 93% 29.75 in 3.0 mi NNW 20.7 mph 29.9 mph N/A   Overcast
8:15 AM 48.2 °F - 46.4 °F 93% 29.76 in 3.0 mi NNW 20.7 mph 27.6 mph N/A   Overcast
8:35 AM 46.4 °F 39.2 °F 44.6 °F 93% 29.77 in 2.5 mi NW 18.4 mph - N/A   Overcast
8:55 AM 44.6 °F 36.1 °F 41.0 °F 87% 29.78 in 8.0 mi NW 21.9 mph - N/A   Overcast
9:15 AM 44.6 °F 36.6 °F 39.2 °F 81% 29.78 in 10.0 mi NNW 19.6 mph 26.5 mph N/A   Overcast
9:35 AM 46.4 °F 38.1 °F 39.2 °F 76% 29.78 in 10.0 mi NW 24.2 mph - N/A   Mostly Cloudy
9:55 AM 46.4 °F 37.9 °F 37.4 °F 71% 29.79 in 10.0 mi NNW 25.3 mph - N/A   Partly Cloudy
10:15 AM 48.2 °F - 37.4 °F 66% 29.79 in 10.0 mi NNW 23.0 mph 29.9 mph N/A   Clear
10:35 AM 48.2 °F - 37.4 °F 66% 29.81 in 10.0 mi NNW 21.9 mph 32.2 mph N/A   Clear
10:55 AM 50.0 °F - 35.6 °F 58% 29.82 in 10.0 mi NNW 23.0 mph 31.1 mph N/A   Clear
11:15 AM 50.0 °F - 37.4 °F 62% 29.82 in 10.0 mi NNW 23.0 mph 31.1 mph N/A   Clear
11:35 AM 51.8 °F - 37.4 °F 58% 29.83 in 10.0 mi NNW 24.2 mph 29.9 mph N/A   Clear
11:55 AM 55.4 °F - 37.4 °F 51% 29.84 in 10.0 mi NNW 23.0 mph 29.9 mph N/A   Clear
12:15 PM 55.4 °F - 37.4 °F 51% 29.84 in 10.0 mi NNW 20.7 mph 29.9 mph N/A   Clear
12:35 PM 57.2 °F - 35.6 °F 44% 29.84 in 10.0 mi NNW 25.3 mph 36.8 mph N/A   Clear
12:55 PM 59.0 °F - 37.4 °F 45% 29.84 in 10.0 mi NNW 27.6 mph 36.8 mph N/A   Clear
1:15 PM 59.0 °F - 39.2 °F 48% 29.85 in 10.0 mi NNW 24.2 mph 31.1 mph N/A   Clear
1:35 PM 59.0 °F - 41.0 °F 51% 29.85 in 10.0 mi NNW 20.7 mph 29.9 mph N/A   Clear
1:55 PM 59.0 °F - 41.0 °F 51% 29.85 in 10.0 mi NNW 23.0 mph - N/A   Clear
2:15 PM 60.8 °F - 39.2 °F 45% 29.84 in 10.0 mi NNW 25.3 mph - N/A   Clear
2:35 PM 60.8 °F - 37.4 °F 42% 29.85 in 10.0 mi NNW 20.7 mph 31.1 mph N/A   Clear
2:55 PM 60.8 °F - 35.6 °F 39% 29.85 in 10.0 mi North 24.2 mph 32.2 mph N/A   Clear
3:15 PM 62.6 °F - 35.6 °F 37% 29.86 in 10.0 mi NNW 26.5 mph 32.2 mph N/A   Clear
3:35 PM 62.6 °F - 35.6 °F 37% 29.86 in 10.0 mi NNW 24.2 mph - N/A   Clear
3:55 PM 62.6 °F - 33.8 °F 34% 29.86 in 10.0 mi NNW 24.2 mph - N/A   Clear
4:15 PM 62.6 °F - 33.8 °F 34% 29.87 in 10.0 mi NNW 19.6 mph 26.5 mph N/A   Clear
4:35 PM 62.6 °F - 33.8 °F 34% 29.88 in 10.0 mi NW 20.7 mph 29.9 mph N/A   Clear
4:55 PM 60.8 °F - 33.8 °F 36% 29.88 in 10.0 mi NW 16.1 mph 27.6 mph N/A   Clear
5:15 PM 60.8 °F - 33.8 °F 36% 29.88 in 10.0 mi NW 19.6 mph - N/A   Clear
5:35 PM 60.8 °F - 33.8 °F 36% 29.89 in 10.0 mi NW 12.7 mph 24.2 mph N/A   Clear
5:55 PM 60.8 °F - 33.8 °F 36% 29.89 in 10.0 mi NW 11.5 mph 20.7 mph N/A   Clear
6:15 PM 59.0 °F - 33.8 °F 39% 29.90 in 10.0 mi NW 12.7 mph - N/A   Clear
6:55 PM 55.4 °F - 33.8 °F 44% 29.90 in 10.0 mi NW 10.4 mph - N/A   Clear
7:15 PM 53.6 °F - 33.8 °F 47% 29.91 in 10.0 mi NNW 8.1 mph - N/A   Clear
7:35 PM 53.6 °F - 33.8 °F 47% 29.91 in 10.0 mi NW 8.1 mph - N/A   Clear
7:55 PM 53.6 °F - 33.8 °F 47% 29.92 in 10.0 mi NW 10.4 mph - N/A   Clear
8:15 PM 53.6 °F - 33.8 °F 47% 29.92 in 10.0 mi NW 11.5 mph - N/A   Clear
8:35 PM 51.8 °F - 33.8 °F 50% 29.93 in 10.0 mi NW 9.2 mph - N/A   Clear
8:55 PM 50.0 °F - 33.8 °F 54% 29.94 in 10.0 mi NW 9.2 mph - N/A   Clear
9:15 PM 50.0 °F - 33.8 °F 54% 29.93 in 10.0 mi NW 8.1 mph - N/A   Clear
9:35 PM 48.2 °F - 33.8 °F 58% 29.94 in 10.0 mi NW 9.2 mph - N/A   Clear
9:55 PM 44.6 °F 39.2 °F 33.8 °F 66% 29.94 in 10.0 mi WNW 10.4 mph - N/A   Clear
10:15 PM 44.6 °F 39.2 °F 33.8 °F 66% 29.94 in 10.0 mi West 10.4 mph - N/A   Clear
10:35 PM 44.6 °F 39.7 °F 33.8 °F 66% 29.95 in 10.0 mi WNW 9.2 mph - N/A   Clear
10:55 PM 44.6 °F 39.7 °F 33.8 °F 66% 29.95 in 10.0 mi WNW 9.2 mph - N/A   Clear
11:15 PM 44.6 °F 39.7 °F 33.8 °F 66% 29.95 in 10.0 mi NW 9.2 mph - N/A   Clear
11:35 PM 44.6 °F 40.2 °F 33.8 °F 66% 29.95 in 10.0 mi WNW 8.1 mph - N/A   Clear
11:55 PM 42.8 °F 38.0 °F 33.8 °F 70% 29.95 in 10.0 mi NW 8.1 mph - N/A   Clear